Terminal Aerodrome Forecast
Issued by NWS

Home | Current Version | Previous Version | Text Only | Print | Product List | Glossary On
Versions: 1 2 3 4 5 6 7 8 9 10 11 12 13 14 15 16
000
FTUS44 KJAN 231633 AAA
TAFHKS
TAF AMD
KHKS 231633Z 2317/2412 25024G36KT 3/4SM +TSRA FEW011 BKN023CB
      OVC060
     FM231730 21011G23KT P6SM VCTS SCT020 BKN030CB BKN090
     FM240000 21009KT P6SM VCTS BKN025CB OVC090
     FM240600 19004KT P6SM SHRA VCTS BKN025CB OVC090=

USA.gov is the U.S. government's official web portal to all federal, state and local government web resources and services.